Location: Brno
(49.2000°N, 16.6330°E)
Time: 11:18:53
(UTC+02:00)

ISS - Pass Details

Date: 24 May 2021
Orbit: 417 x 422 km, 51.6° (Epoch: 13 June)

Event Time Altitude Azimuth Distance (km) Brightness Sun altitude
Rises 21:22:59 0° 278° (W) 2,364 1.1 -6.1°
Reaches altitude 10° 21:25:07 10° 283° (WNW) 1,501 0.2 -6.4°
Maximum altitude 21:28:25 54° 2° (N) 517 -3.0 -6.8°
Drops below altitude 10° 21:31:45 10° 82° (E) 1,503 -1.3 -7.2°
Enters shadow 21:33:38 - 86° (E) 2,268 -0.4 -7.4°
